This demonstration page uses our WeatherBlox Daily Observations layout. Learn more.

Left ArrowRight Arrow

Hourly Observations for May 14, 2021

Temp ( °F °C ) Dew Point ( °F °C ) Humidity (%) Winds ( mph kmh ) Pressure ( in mb ) Visibility ( mi km ) Precip ( " mm )
12:56 am 00:56 Mostly Clear 52 11.1 49 9.4 89 89 SSE 17 28 30.15 1021 10 16 0.06 1.52
1:56 am 01:56 Clear 52 11.1 49 9.4 89 89 SSE 21 33 30.09 1019 10 16 0.00 0.00
2:56 am 02:56 Clear 51 10.6 49 9.4 92 92 S 10 17 30.09 1019 10 16 0.00 0.00
3:56 am 03:56 Clear 54 12.2 49 9.4 83 83 SSW 22 35 30.06 1018 10 16 0.00 0.00
4:56 am 04:56 Clear 53 11.7 48 8.9 83 83 SSW 28 44 30.04 1017 10 16 0.00 0.00
5:56 am 05:56 Clear 52 11.1 47 8.3 83 83 SSW 20 31 30.05 1018 10 16 0.00 0.00
6:56 am 06:56 Sunny 51 10.6 47 8.3 86 86 SSW 16 26 30.08 1019 10 16 0.00 0.00
7:56 am 07:56 Sunny 53 11.7 48 8.9 83 83 SSW 12 19 30.10 1019 10 16 0.00 0.00
8:56 am 08:56 Sunny 56 13.3 49 9.4 77 77 SW 9 15 30.11 1020 10 16 0.00 0.00
9:47 am 09:47 Mostly Cloudy 59 15 52 11 77 77 SW 9 15 30.10 1019 10 16 0.00 0.00
9:56 am 09:56 Partly Cloudy 59 15 51 10.6 75 75 SW 9 15 30.11 1020 10 16 0.00 0.00
10:03 am 10:03 Mostly Cloudy 59 15 52 11 77 77 VRB 6 9 30.09 1019 10 16 0.00 0.00
10:56 am 10:56 Mostly Cloudy 61 16.1 53 11.7 75 75 SW 9 15 30.10 1019 10 16 0.00 0.00
11:56 am 11:56 Cloudy 62 16.7 53 11.7 73 73 SSW 7 11 30.10 1019 9 14 0.00 0.00
12:11 pm 12:11 Cloudy with Haze 63 17 54 12 73 73 Calm 30.06 1018 2 3 0.00 0.00
12:17 pm 12:17 Mostly Cloudy with Haze 63 17 52 11 68 68 Calm 30.06 1018 3 5 0.00 0.00
12:56 pm 12:56 Cloudy 63 17.2 52 11.1 68 68 NW 3 6 30.09 1019 10 16 0.00 0.00
1:56 pm 13:56 Cloudy 64 17.8 53 11.7 68 68 N 3 6 30.07 1018 10 16 0.00 0.00
2:23 pm 14:23 Mostly Cloudy 66 19 54 12 64 64 ESE 5 7 30.01 1016 10 16 0.00 0.00
2:56 pm 14:56 Cloudy 66 18.9 53 11.7 63 63 SE 6 9 30.05 1018 10 16 0.00 0.00
3:56 pm 15:56 Partly Cloudy with Light Rain 66 18.9 54 12.2 65 65 ESE 8 13 30.04 1017 10 16 0.00 0.00
4:56 pm 16:56 Cloudy 66 18.9 53 11.7 63 63 Calm 30.05 1018 10 16 0.00 0.00
5:56 pm 17:56 Mostly Sunny 67 19.4 54 12.2 63 63 ESE 7 11 30.04 1017 10 16 0.00 0.00
6:56 pm 18:56 Sunny 66 18.9 55 12.8 68 68 SE 13 20 30.01 1016 10 16 0.00 0.00
7:56 pm 19:56 Sunny 65 18.3 55 12.8 70 70 SE 7 11 30.02 1017 10 16 0.00 0.00
8:56 pm 20:56 Clear 60 15.6 55 12.8 84 84 SSE 7 11 30.02 1017 10 16 0.00 0.00
9:56 pm 21:56 Clear 58 14.4 54 12.2 87 87 SE 5 7 30.02 1017 10 16 0.00 0.00
10:56 pm 22:56 Clear 55 12.8 52 11.1 90 90 E 5 7 30.01 1016 10 16 0.00 0.00
11:56 pm 23:56 Clear 54 12.2 51 10.6 90 90 Calm 30.04 1017 10 16 0.00 0.00

Powered by AerisWeather